Location: The Saddle
(36.8333°N, 80.3417°W)
Time: 07:32:03
(UTC-04:00)

Vanguard 2 Rocket - Pass Details

Date: 04 February 2023
Orbit: 555 x 3316 km, 32.9° (Epoch: 27 March)

Event Time Altitude Azimuth Distance (km) Brightness Sun altitude
Rises 15:14:28 0° 266° (W) 2,741 10.1 25.1°
Reaches altitude 10° 15:16:56 10° 248° (WSW) 1,932 9.9 24.8°
Maximum altitude 15:20:09 21° 198° (SSW) 1,542 9.6 24.3°
Drops below altitude 10° 15:24:12 10° 151° (SSE) 2,496 9.4 23.8°
Sets 15:27:59 0° 136° (SE) 3,854 10.1 23.2°
